Wind_Speed
67 65 64 63 60 58 59 58 59 56 55 57 59 59 56 54 53 50 47 46 46 44 46 42 43 43 42 40 36 34 34 34 34 35 35 35 35 35 36 37 38 38 38
72 73 71 68 66 64 59 61 63 60 60 59 60 61 60 58 57 55 54 50 47 46 48 44 44 44 43 40 38 38 37 38 39 38 38 39 39 41 40 43 42 39 40
76 76 76 76 75 71 68 65 67 67 65 65 56 63 62 56 57 58 60 52 49 49 50 47 48 46 45 45 44 44 42 42 41 41 41 41 43 44 46 46 45 42 41
81 82 80 79 78 78 77 73 69 69 66 62 62 66 67 58 59 62 62 56 53 52 53 52 54 52 51 49 47 46 47 46 43 43 41 41 44 45 49 49 46 44 45
85 86 86 86 84 82 81 80 78 74 70 67 73 69 68 65 73 68 64 60 58 56 57 59 56 56 56 54 54 50 48 49 46 46 47 49 49 49 51 50 49 48 48
87 89 90 90 88 87 86 85 84 83 79 80 82 81 77 77 72 72 73 69 66 63 63 64 65 60 63 66 61 58 60 57 54 50 50 53 55 53 53 54 51 50 50
86 88 91 92 91 90 89 88 88 88 86 83 84 84 81 78 75 74 75 71 74 74 69 70 72 68 66 72 71 69 66 63 63 62 57 53 56 59 61 59 59 55 53
85 86 90 92 92 92 91 91 91 91 91 91 90 87 88 84 79 77 72 76 74 75 74 76 77 75 72 72 73 71 72 68 66 63 61 62 58 63 64 65 62 61 57
84 86 89 92 92 92 92 93 93 93 94 95 96 95 93 92 91 86 80 84 79 78 75 81 79 79 79 80 77 75 74 70 68 67 68 69 70 69 70 70 66 66 60
78 81 84 87 92 93 94 94 94 95 96 98 99 99 99 98 97 98 91 89 86 86 85 83 84 86 84 83 82 81 80 77 74 74 72 74 74 74 72 70 71 70 66
78 79 79 81 85 87 91 94 96 97 97 98 100 103 102 102 100 100 102 99 96 92 87 83 84 86 87 86 88 87 85 83 80 80 78 79 75 73 73 72 72 70 72
71 73 75 76 80 82 85 89 93 95 97 99 100 101 104 106 106 105 106 109 106 98 98 87 87 87 86 88 89 89 88 89 89 87 86 83 81 80 75 74 77 76 77
64 67 68 72 75 78 80 83 88 91 94 96 100 104 104 103 105 108 109 111 115 111 104 98 95 94 94 93 91 89 90 91 89 85 81 76 80 78 79 76 80 86 85
58 62 64 67 71 75 79 82 85 88 92 92 97 101 105 107 104 105 107 110 116 120 119 114 110 105 97 98 97 94 94 93 91 91 87 84 83 86 85 88 88 89 92
59 62 63 66 70 73 76 80 81 86 90 91 94 99 101 104 106 106 106 109 112 117 122 122 120 120 118 112 106 102 102 98 97 96 98 96 96 95 91 88 95 96 92
57 60 63 65 66 70 73 78 81 82 87 91 89 93 98 101 103 107 109 110 110 111 116 117 118 119 120 120 117 114 111 107 106 106 105 100 97 93 92 92 96 98 96
56 58 59 62 64 66 69 72 76 79 82 87 88 88 91 97 100 104 108 110 111 109 112 113 116 119 120 119 116 112 111 108 102 100 102 99 97 101 102 107 106 104 102
51 54 58 61 61 59 64 66 70 72 74 78 83 86 86 89 95 102 104 105 110 112 112 114 114 116 117 116 116 115 113 112 113 115 113 114 114 114 112 112 113 114 115
51 52 54 55 54 55 57 60 63 65 68 71 74 77 79 83 88 97 101 103 105 111 117 116 114 117 116 116 115 114 115 116 115 116 116 117 118 118 118 118 118 119 121
44 45 45 46 45 49 51 52 54 57 59 61 63 67 73 78 88 89 96 99 101 106 114 120 115 113 113 115 116 117 117 117 118 120 120 120 120 120 121 122 123 126 128
37 39 39 38 38 43 42 41 45 49 51 52 55 60 67 74 82 88 91 93 96 101 103 110 116 117 116 116 116 117 118 119 119 120 121 123 124 125 127 128 130 130 130
32 35 32 31 31 34 33 38 42 43 42 45 51 58 64 68 75 82 84 87 90 93 96 101 105 111 118 120 119 118 118 119 119 120 121 123 125 126 127 129 130 129 128
27 27 27 25 23 25 29 33 33 34 36 40 46 49 55 61 68 76 79 80 82 86 89 91 94 97 101 107 112 117 121 122 123 125 125 124 125 125 127 129 131 131 131
20 18 16 16 15 17 20 25 24 25 29 34 40 42 50 55 63 69 73 73 74 77 81 84 87 89 91 94 97 100 105 109 112 115 117 120 121 123 124 125 125 125 125
13 11 9 7 7 6 10 14 16 20 23 28 33 38 42 48 55 60 64 65 65 66 69 72 75 79 82 84 86 90 92 95 98 101 103 105 106 107 108 109 111 111 112
11 7 5 3 1 1 2 6 7 10 15 19 24 30 36 40 44 49 53 56 58 60 61 64 67 70 72 75 77 80 81 84 86 87 88 90 92 93 95 96 97 97 98
Wind_Direction
244 244 245 244 244 247 244 243 242 243 244 247 249 251 252 252 252 252 251 252 254 254 256 251 252 251 251 251 251 253 256 261 266 270 275 275 278 280 282 289 284 282 280
246 243 244 243 243 242 241 245 242 241 241 243 245 247 248 247 248 251 252 249 252 254 255 248 249 250 249 250 253 256 259 261 266 271 275 277 280 283 280 284 282 279 280
247 246 245 245 244 243 243 243 244 244 243 243 254 255 250 251 257 254 252 248 251 251 252 251 248 250 252 252 256 260 262 266 266 267 271 275 279 283 279 280 277 276 279
249 249 248 248 246 244 242 243 242 242 241 240 234 245 246 246 254 253 253 250 249 251 249 250 247 249 251 250 255 262 260 264 262 268 267 274 275 281 282 277 276 278 280
251 251 251 249 248 247 246 242 242 240 236 237 237 243 242 244 243 241 243 248 247 248 251 251 253 253 247 250 256 256 260 259 266 268 271 274 276 280 280 272 273 273 275
251 251 251 252 251 249 247 246 243 240 240 244 242 243 244 241 242 243 242 244 245 244 248 249 251 253 252 251 252 254 256 255 256 256 263 271 273 276 278 273 274 275 275
255 255 255 254 252 252 251 248 246 245 241 241 244 245 242 241 242 241 240 246 246 245 242 244 245 247 248 252 253 254 253 254 258 259 260 264 271 274 276 274 274 274 274
257 256 256 256 255 254 252 250 247 244 244 242 240 242 242 239 238 243 243 246 247 249 247 244 244 248 248 248 252 255 259 259 262 262 263 265 265 267 274 273 272 274 273
259 257 256 256 255 254 252 251 249 247 244 242 242 240 241 241 238 241 241 246 244 243 248 249 249 248 248 250 250 251 256 259 261 263 265 267 270 267 270 270 273 274 274
263 258 256 255 254 254 253 251 250 248 246 245 242 241 239 239 240 241 241 244 246 245 245 249 250 250 249 252 255 257 257 257 260 263 267 271 270 271 271 270 273 272 273
265 263 259 256 254 253 252 252 251 248 246 246 244 242 240 238 240 240 240 240 244 245 245 246 251 251 253 254 258 258 258 261 261 261 265 269 269 270 270 270 271 267 273
263 261 261 259 257 254 251 251 251 250 247 246 246 243 241 239 237 238 239 239 238 241 245 246 247 248 251 253 256 258 262 265 265 265 265 268 269 267 266 265 266 267 273
263 261 260 258 257 256 254 252 251 249 248 246 245 244 244 242 239 238 238 238 238 238 239 242 244 247 248 252 253 256 259 262 263 264 263 262 263 260 263 262 266 267 275
265 263 260 259 257 255 255 252 251 250 248 245 245 244 243 243 241 239 239 238 239 239 240 239 242 243 246 249 250 254 255 257 260 262 263 260 262 266 263 272 275 275 279
268 267 265 261 260 257 255 255 252 250 250 246 243 244 243 243 242 241 240 239 239 240 241 242 243 245 247 247 249 251 254 258 259 259 262 264 267 268 272 271 273 274 273
272 271 269 267 264 261 258 256 254 250 249 249 246 242 242 243 242 241 240 241 240 240 242 242 244 246 248 249 251 250 255 258 259 259 261 264 265 264 267 269 271 276 277
275 273 271 269 266 262 259 257 255 251 248 247 247 245 241 241 242 242 241 241 241 241 242 243 243 245 248 249 251 251 252 252 258 262 262 263 262 262 264 265 267 271 274
277 273 268 265 265 264 260 257 255 253 249 247 245 243 242 240 240 241 242 242 242 242 243 243 244 246 247 250 250 251 252 253 253 254 255 257 260 263 264 265 268 270 271
276 272 268 265 262 260 259 256 254 253 250 247 245 242 240 237 237 239 241 242 242 242 243 244 244 245 247 249 251 252 253 253 255 257 259 261 263 264 265 267 269 271 273
278 275 268 264 263 259 259 257 255 253 250 246 244 240 238 234 236 236 238 240 241 241 242 244 246 248 249 250 252 253 255 255 256 257 258 261 263 264 266 268 269 270 273
282 277 271 267 263 262 258 256 252 249 247 244 241 237 235 232 232 235 236 239 240 242 243 244 246 247 248 250 252 253 255 256 258 259 261 262 264 265 266 268 269 271 274
286 279 277 270 260 255 251 248 245 246 241 239 235 233 234 233 233 236 237 239 241 243 244 246 247 248 249 251 253 255 257 258 259 261 262 263 264 266 268 269 271 273 274
289 282 275 266 260 245 246 247 246 244 238 235 234 236 232 234 234 236 239 240 242 244 247 250 251 251 252 253 254 256 258 260 261 262 263 265 266 267 269 270 271 272 273
301 285 278 266 254 248 245 248 246 239 237 234 237 236 235 234 236 238 240 242 244 246 249 252 254 255 256 257 258 258 259 260 261 263 264 265 266 267 268 270 271 272 273
314 316 310 303 287 272 261 260 250 242 234 232 231 233 235 237 239 242 245 245 247 250 252 255 257 259 260 262 262 263 263 264 264 265 266 268 269 270 271 272 273 273 273
1 360 338 339 43 11 300 240 254 251 245 242 238 240 244 247 248 249 249 249 251 253 255 256 257 258 260 261 262 264 266 267 268 268 268 269 270 270 271 271 272 272 273
Height
10699 10702 10706 10711 10716 10720 10723 10726 10729 10731 10734 10736 10739 10743 10745 10746 10747 10749 10753 10755 10755 10758 10758 10761 10761 10763 10764 10765 10766 10767 10767 10768 10768 10769 10769 10769 10768 10768 10768 10768 10767 10766 10764
10682 10687 10691 10696 10701 10707 10711 10712 10714 10716 10721 10723 10725 10728 10733 10733 10735 10736 10739 10744 10747 10748 10747 10752 10752 10753 10755 10756 10758 10758 10758 10759 10759 10760 10761 10760 10760 10760 10760 10759 10758 10758 10757
10666 10670 10675 10680 10686 10691 10695 10699 10701 10704 10707 10711 10715 10716 10722 10724 10725 10726 10726 10732 10736 10738 10738 10742 10742 10743 10744 10746 10747 10748 10749 10750 10750 10751 10751 10751 10751 10751 10750 10750 10749 10749 10748
10651 10653 10658 10663 10668 10673 10679 10684 10687 10692 10694 10699 10699 10701 10707 10709 10712 10714 10714 10719 10724 10727 10727 10729 10731 10732 10733 10734 10735 10737 10739 10740 10740 10740 10741 10741 10741 10741 10740 10739 10739 10739 10738
10634 10636 10639 10644 10650 10655 10659 10665 10670 10677 10681 10683 10686 10689 10691 10690 10693 10697 10700 10703 10708 10713 10715 10715 10717 10720 10721 10721 10723 10725 10726 10728 10730 10731 10731 10730 10730 10730 10729 10729 10729 10728 10727
10615 10615 10618 10623 10628 10635 10640 10645 10651 10657 10664 10666 10670 10674 10676 10674 10676 10683 10686 10688 10692 10698 10701 10703 10703 10706 10707 10706 10710 10712 10714 10716 10716 10717 10719 10719 10719 10718 10718 10718 10718 10718 10717
10596 10597 10596 10601 10606 10612 10617 10625 10631 10636 10644 10648 10648 10655 10658 10660 10661 10666 10671 10674 10676 10679 10683 10686 10687 10690 10691 10691 10694 10698 10699 10701 10703 10705 10705 10706 10706 10706 10705 10706 10706 10706 10705
10575 10577 10577 10578 10583 10587 10592 10599 10606 10613 10620 10623 10631 10634 10639 10644 10650 10652 10654 10657 10659 10667 10668 10670 10671 10675 10675 10675 10677 10683 10685 10690 10690 10691 10692 10692 10693 10693 10692 10692 10692 10692 10692
10549 10554 10556 10555 10558 10561 10567 10572 10580 10588 10596 10600 10606 10613 10621 10628 10633 10635 10639 10638 10643 10648 10652 10653 10657 10658 10659 10659 10661 10666 10670 10675 10675 10677 10678 10679 10679 10677 10678 10678 10678 10678 10677
10524 10525 10530 10532 10532 10536 10542 10545 10552 10560 10568 10575 10580 10589 10596 10604 10608 10617 10621 10621 10624 10629 10634 10637 10638 10640 10643 10644 10646 10649 10653 10658 10661 10663 10663 10663 10663 10663 10663 10664 10664 10664 10663
10500 10500 10503 10506 10509 10513 10515 10517 10523 10531 10539 10545 10553 10559 10570 10579 10588 10594 10601 10602 10604 10609 10614 10620 10620 10623 10627 10629 10630 10631 10634 10640 10644 10646 10648 10647 10647 10647 10647 10648 10648 10648 10647
10476 10478 10479 10482 10483 10487 10491 10493 10495 10502 10511 10519 10524 10532 10541 10550 10561 10567 10574 10580 10582 10588 10595 10601 10603 10608 10607 10609 10613 10615 10617 10619 10623 10627 10629 10631 10629 10629 10630 10631 10630 10631 10630
10455 10456 10458 10458 10459 10460 10464 10468 10470 10476 10481 10491 10496 10504 10511 10521 10533 10542 10548 10556 10563 10568 10576 10581 10587 10588 10590 10590 10594 10599 10602 10602 10603 10605 10609 10610 10610 10611 10612 10613 10613 10612 10611
10435 10434 10435 10436 10437 10438 10438 10442 10445 10449 10453 10464 10469 10475 10484 10492 10504 10513 10523 10530 10535 10544 10551 10561 10565 10566 10570 10571 10575 10581 10583 10584 10586 10587 10590 10591 10592 10593 10594 10594 10592 10591 10591
10414 10413 10414 10415 10413 10415 10416 10416 10422 10424 10425 10434 10441 10449 10458 10465 10476 10486 10496 10503 10509 10516 10524 10535 10543 10544 10545 10552 10556 10561 10562 10566 10567 10569 10569 10572 10572 10573 10574 10574 10572 10572 10570
10395 10393 10390 10391 10392 10391 10392 10392 10395 10399 10402 10405 10415 10424 10432 10440 10450 10458 10467 10475 10485 10494 10499 10511 10520 10519 10520 10527 10535 10544 10544 10545 10545 10548 10549 10551 10553 10553 10553 10554 10551 10548 10546
10376 10373 10369 10366 10366 10366 10368 10368 10368 10373 10376 10382 10390 10399 10408 10415 10425 10432 10438 10450 10459 10472 10477 10486 10491 10496 10498 10506 10514 10521 10523 10526 10524 10523 10526 10529 10532 10533 10534 10533 10535 10533 10529
10355 10351 10347 10344 10343 10343 10342 10344 10345 10347 10353 10358 10365 10373 10384 10395 10401 10406 10416 10427 10437 10447 10453 10457 10468 10472 10476 10484 10490 10495 10499 10502 10505 10507 10508 10509 10511 10512 10511 10511 10510 10508 10506
10335 10331 10327 10325 10323 10322 10320 10322 10324 10326 10330 10336 10343 10352 10363 10371 10378 10383 10394 10404 10414 10422 10425 10433 10442 10446 10456 10461 10466 10471 10476 10479 10481 10482 10484 10485 10486 10486 10487 10485 10484 10483 10479
10317 10312 10310 10306 10305 10302 10302 10305 10307 10309 10313 10318 10325 10332 10339 10349 10351 10364 10369 10380 10391 10397 10402 10405 10422 10430 10436 10441 10445 10448 10451 10454 10457 10457 10460 10461 10460 10461 10462 10461 10459 10453 10452
10301 10296 10293 10291 10289 10287 10288 10289 10290 10292 10297 10303 10308 10316 10319 10329 10335 10341 10352 10361 10370 10375 10386 10392 10400 10407 10411 10415 10419 10423 10427 10429 10431 10433 10435 10435 10437 10437 10433 10431 10426 10426 10428
10288 10283 10280 10277 10276 10275 10276 10275 10277 10280 10286 10290 10294 10300 10305 10316 10323 10327 10338 10345 10353 10360 10367 10372 10378 10384 10389 10394 10398 10401 10403 10404 10408 10409 10409 10410 10408 10408 10407 10405 10402 10401 10399
10277 10273 10270 10268 10267 10267 10266 10266 10269 10272 10276 10280 10284 10290 10297 10303 10311 10315 10323 10331 10339 10346 10351 10356 10361 10365 10369 10373 10378 10381 10381 10384 10385 10384 10385 10385 10384 10383 10380 10376 10371 10371 10370
10271 10267 10264 10261 10260 10260 10260 10260 10263 10265 10269 10273 10277 10284 10288 10295 10299 10305 10311 10321 10327 10332 10337 10342 10344 10347 10350 10353 10357 10359 10358 10358 10358 10357 10357 10355 10355 10352 10350 10345 10342 10340 10338
10267 10262 10260 10257 10255 10256 10256 10257 10258 10261 10264 10267 10271 10276 10282 10287 10291 10297 10305 10312 10317 10320 10323 10326 10329 10329 10330 10332 10333 10333 10335 10335 10335 10334 10332 10330 10328 10325 10323 10320 10315 10311 10309
10266 10262 10260 10257 10256 10256 10256 10257 10258 10260 10262 10265 10270 10274 10278 10283 10287 10291 10295 10300 10305 10308 10310 10310 10311 10312 10313 10314 10314 10313 10313 10313 10312 10310 10307 10304 10302 10300 10294 10291 10289 10286 10282